West Memphis, AR

4:32 AM CDT on July 26, 2017 (GMT -0500)
West Memphis Municipal

Weather History for KAWM - June, 2013

Change the Weather History Date:

Thursday, June 20, 2013

  Actual Average Record
Temperature  
Mean Temperature 80 °F -  
Max Temperature 91 °F 89 °F 100 °F (1990)
Min Temperature 70 °F 68 °F 54 °F (1982)
Cooling Degree Days 15    
Growing Degree Days 30 (Base 50)    
Moisture  
Dew Point 68 °F    
Average Humidity 69    
Maximum Humidity 96    
Minimum Humidity 40    
Precipitation  
Precipitation 0.00 in - - ()
Sea Level Pressure  
Sea Level Pressure 30.06 in    
Wind  
Wind Speed 2 mph (South)    
Max Wind Speed 12 mph    
Max Gust Speed -    
Visibility 10 miles    
Events      
Averages and records for this station are not official NWS values.
T = Trace of Precipitation, MM = Missing Value Source: NWS Daily Summary

Daily Weather History Graph

Daily Weather History Graph

Search for Another Location

Airport or City:

Trip Planner

Search our weather history database for the weather conditions in past years. The results will help you decide how hot, cold, wet, or windy it might be!

Date:

Astronomy

Jun. 20, 2013 Rise Set
Actual Time 5:46 AM CDT 8:18 PM CDT
Civil Twilight 5:16 AM CDT 8:48 PM CDT
Nautical Twilight 4:40 AM CDT 9:25 PM CDT
Astronomical Twilight 3:59 AM CDT 10:05 PM CDT
Moon 5:24 PM CDT (6/20) 3:08 AM CDT (6/20)
Length of Visible Light 15h 31m
Length of Day
14h 31m
Waxing Gibbous, 89% of the Moon is Illuminated
Jun 20
Waxing Gibbous
Jun 23
Full
Jun 29
Last Quarter
Jul 8
New
Jul 15
First Quarter

Hourly Weather History & Observations

Time (CDT) Temp. Heat Index Dew Point Humidity Pressure Visibility Wind Dir Wind Speed Gust Speed Precip Events Conditions
12:53 AM 71.1 °F - 70.0 °F 96% 30.02 in 6.0 mi Calm Calm - N/A   Clear
1:53 AM 71.1 °F - 69.1 °F 93% 30.02 in 6.0 mi Calm Calm - N/A   Clear
2:53 AM 71.1 °F - 69.1 °F 93% 30.02 in 9.0 mi Calm Calm - N/A   Clear
3:53 AM 72.0 °F - 68.0 °F 87% 30.03 in 10.0 mi Calm Calm - N/A   Clear
4:53 AM 70.0 °F - 68.0 °F 93% 30.04 in 10.0 mi Calm Calm - N/A   Clear
5:53 AM 71.1 °F - 66.9 °F 87% 30.06 in 10.0 mi Calm Calm - N/A   Clear
6:53 AM 72.0 °F - 68.0 °F 87% 30.07 in 6.0 mi Calm Calm - N/A   Mostly Cloudy
7:24 AM 75.2 °F - 69.8 °F 83% 30.09 in 10.0 mi SSE 3.5 mph - N/A   Scattered Clouds
7:53 AM 77.0 °F - 70.0 °F 79% 30.09 in 10.0 mi SSE 4.6 mph - N/A   Clear
8:53 AM 81.0 °F 84.1 °F 69.1 °F 67% 30.10 in 10.0 mi South 3.5 mph - N/A   Clear
9:53 AM 84.0 °F 88.4 °F 70.0 °F 63% 30.11 in 10.0 mi SSW 4.6 mph - N/A   Clear
10:53 AM 86.0 °F 89.4 °F 68.0 °F 55% 30.11 in 10.0 mi Calm Calm - N/A   Unknown
11:53 AM 88.0 °F 90.7 °F 66.9 °F 49% 30.10 in 10.0 mi SSE 9.2 mph - N/A   Scattered Clouds
12:53 PM 87.1 °F 88.9 °F 64.9 °F 48% 30.09 in 10.0 mi SSW 3.5 mph - N/A   Partly Cloudy
1:53 PM 90.0 °F 92.4 °F 66.0 °F 45% 30.08 in 10.0 mi South 11.5 mph - N/A   Scattered Clouds
2:53 PM 90.0 °F 92.4 °F 66.0 °F 45% 30.07 in 10.0 mi SSW 6.9 mph - N/A   Partly Cloudy
3:53 PM 90.0 °F 91.7 °F 64.9 °F 43% 30.06 in 10.0 mi SSE 5.8 mph - N/A   Partly Cloudy
4:53 PM 90.0 °F 90.6 °F 63.0 °F 40% 30.05 in 10.0 mi SSE 10.4 mph - N/A   Clear
5:53 PM 89.1 °F 91.0 °F 64.9 °F 45% 30.03 in 10.0 mi SSE 9.2 mph - N/A   Clear
6:53 PM 87.1 °F 89.2 °F 66.0 °F 49% 30.03 in 10.0 mi SSE 8.1 mph - N/A   Clear
7:53 PM 82.9 °F 85.8 °F 68.0 °F 60% 30.04 in 10.0 mi Calm Calm - N/A   Clear
8:53 PM 78.1 °F - 69.1 °F 74% 30.04 in 10.0 mi Calm Calm - N/A   Clear
9:53 PM 75.9 °F - 68.0 °F 76% 30.06 in 10.0 mi Calm Calm - N/A   Clear
10:53 PM 75.9 °F - 69.1 °F 79% 30.08 in 10.0 mi Calm Calm - N/A   Clear
11:53 PM 75.0 °F - 69.1 °F 82% 30.08 in 10.0 mi Calm Calm - N/A   Clear